Regional Weather Roundup
Issued by NWS

Home | Current Version | Previous Version | Graphics & Text | Print | Product List | Glossary On
Versions: 1 2 3 4 5 6 7 8 9 10 11 12 13 14 15 16 17 18 19 20 21 22 23 24 25 26 27 28 29 30 31 32 33 34 35 36 37 38 39 40 41 42 43 44 45 46 47 48 49 50
881
ASUS45 KSLC 220410
RWRUT

UTAH REGIONAL WEATHER ROUNDUP
NATIONAL WEATHER SERVICE SALT LAKE CITY UT
1000 PM MDT SAT APR 21 2018

UTZ001>011-023>025-220500-

NORTHERN UTAH

CITY           SKY/WX    TMP DP  RH WIND       PRES   REMARKS
BRIGHAM CITY   CLEAR     57  31  38 E6        30.16R
HILL AFB       CLEAR     54  26  34 CALM      30.16R
LOGAN          CLEAR     59  36  42 NE3       30.14R
OGDEN          CLEAR     56  28  34 MISG      30.15R
SALT LAKE CITY CLEAR     60  30  32 SE6       30.14R
TOOELE VALLEY  CLEAR     45  36  70 SE7       30.15S
WENDOVER       CLEAR     61  25  25 W7        30.13R
HEBER CITY       N/A     41  25  52 E8        30.19R
WEST JORDAN    CLEAR     52  32  46 W6        30.17R

$$

UTZ011>015-024>027-220500-

CENTRAL/NORTHEAST UTAH

CITY           SKY/WX    TMP DP  RH WIND       PRES   REMARKS
PROVO AIRPORT  CLEAR     54  39  57 CALM      30.17R
MOAB/CANYONLAN CLEAR     59  31  34 CALM      30.10R
DELTA          CLEAR     52  34  50 SE8       30.17S
PRICE          CLEAR     58  26  29 NW13G21   30.16R
ROOSEVELT      CLEAR     50  36  57 W5        30.16R
VERNAL         CLEAR     52  38  58 NW7       30.13R

$$

UTZ013>016-019>022-027-220500-

SOUTHERN UTAH

CITY           SKY/WX    TMP DP  RH WIND       PRES   REMARKS
BRYCE CANYON   CLEAR     45  24  43 VRB3      30.27R
CEDAR CITY     CLEAR     51  31  46 E5        30.18R
MILFORD        CLEAR     48  35  60 NW3       30.17R
ST GEORGE      CLEAR     73  19  13 NE10      30.03R
HANKSVILLE     CLEAR     55  23  28 CALM      30.12R
BLANDING         N/A     53  25  34 NE10      30.26R

$$

REGIONAL REPORTS     COLORADO/ARIZONA

CITY           SKY/WX    TMP DP  RH WIND       PRES   REMARKS
CRAIG, CO      CLEAR     43  36  76 E5        30.20R
GRAND JUNCTION CLEAR     52  36  54 SE8       30.16R
RIFLE, CO      CLEAR     44  39  82 E7        30.21R
MONTROSE, CO   CLEAR     46  34  62 SE10      30.24R
CORTEZ, CO     CLEAR     45  26  47 E6        30.20R
COLORADO CITY    N/A     55  23  28 CALM      30.15R
PAGE, AZ       CLEAR     64  32  30 CALM      30.09R
GRAND CANYON   CLEAR     40  27  59 CALM      30.22R
KINGMAN, AZ    MOCLDY    65  23  20 S3        30.05R
FLAGSTAFF, AZ  CLEAR     44  21  40 CALM      30.24R

$$

REGIONAL REPORTS    NEVADA/IDAHO/WYOMING

CITY           SKY/WX    TMP DP  RH WIND       PRES   REMARKS
LAS VEGAS, NV  PTCLDY    79  28  15 CALM      29.98R
ELY, NY        CLEAR     46  19  34 S8        30.19R
ELKO, NV       CLEAR     53  34  48 CALM      30.16R
POCATELLO, ID  CLEAR     56  34  43 SW15      30.13R
BURLEY, ID     CLEAR     53  33  46 W12       30.12R
FORT BRIDGER,    N/A     47  26  43 W10       30.25R
EVANSTON, WY   CLEAR     44  26  49 SW7       30.25R
ROCK SPRINGS,  CLEAR     48  21  34 W9        30.17R
KEMMERER, WY   CLEAR     45  27  49 W10       30.23R

$$




USA.gov is the U.S. government's official web portal to all federal, state and local government web resources and services.